When you browse on this site, cookies collect data to enhance your experience and personalize the content and advertising you see.
Visit our Privacy Policy to learn more. By continuing to use the site, you agree to this use of cookies and data.
  • In Norway
  • List of Countries
  • For 7 days
  • Water Temperature
  • Satellite Maps
  • Weather Map
  • Weather Widgets
  • user-avatar
    Login

    Hourly Weather Gold Coast

    Today, 13 December, Thursday

    Time Temperature Precipitation Wind Pressure Humidity
    00:00 +22°C° 0 mm 3 mps 755 mmHg 86%
    01:00 +22°C° 0 mm 4 mps 754 mmHg 86%
    02:00 +22°C° 0 mm 3 mps 754 mmHg 87%
    03:00 +21°C° 0 mm 3 mps 754 mmHg 89%
    04:00 +21°C° 0 mm 2 mps 753 mmHg 91%
    05:00 +22°C° 0 mm 3 mps 753 mmHg 85%
    06:00 +24°C° 0 mm 3 mps 753 mmHg 79%
    07:00 +25°C° 0 mm 3 mps 753 mmHg 73%
    08:00 +27°C° 0 mm 4 mps 753 mmHg 64%
    09:00 +29°C° 0 mm 4 mps 753 mmHg 54%
    10:00 +30°C° 0 mm 5 mps 753 mmHg 50%
    11:00 +33°C° 0 mm 5 mps 753 mmHg 45%
    12:00 +34°C° 0 mm 5 mps 752 mmHg 41%
    13:00 +35°C° 0 mm 6 mps 752 mmHg 37%
    14:00 +34°C° 0 mm 6 mps 751 mmHg 41%
    15:00 +33°C° 0 mm 7 mps 750 mmHg 45%
    16:00 +32°C° 0 mm 7 mps 750 mmHg 49%
    17:00 +30°C° 0 mm 7 mps 749 mmHg 58%
    18:00 +28°C° 0 mm 7 mps 749 mmHg 66%
    19:00 +26°C° 0 mm 6 mps 749 mmHg 75%
    20:00 +26°C° 0 mm 6 mps 750 mmHg 76%
    21:00 +24°C° 0 mm 6 mps 750 mmHg 78%
    22:00 +24°C° 0 mm 7 mps 751 mmHg 77%
    23:00 +23°C° 0.8 mm 6 mps 751 mmHg 82%

    Tomorrow, 14 December, Friday

    Time Temperature Precipitation Wind Pressure Humidity
    00:00 +23°C° 0.8 mm 5 mps 751 mmHg 87%
    01:00 +22°C° 0.8 mm 4 mps 751 mmHg 92%
    02:00 +22°C° 0.1 mm 4 mps 750 mmHg 92%
    03:00 +23°C° 0.1 mm 5 mps 750 mmHg 93%
    04:00 +23°C° 0.1 mm 5 mps 750 mmHg 93%
    05:00 +23°C° 0 mm 5 mps 750 mmHg 90%
    06:00 +25°C° 0 mm 5 mps 750 mmHg 88%
    07:00 +25°C° 0 mm 5 mps 750 mmHg 85%
    08:00 +27°C° 0 mm 5 mps 750 mmHg 81%
    09:00 +28°C° 0 mm 5 mps 750 mmHg 77%
    10:00 +29°C° 0 mm 5 mps 750 mmHg 72%
    11:00 +30°C° 0.3 mm 6 mps 750 mmHg 69%
    12:00 +30°C° 0.3 mm 6 mps 750 mmHg 65%
    13:00 +32°C° 0.3 mm 6 mps 750 mmHg 62%
    14:00 +32°C° 0.1 mm 6 mps 750 mmHg 62%
    15:00 +32°C° 0.1 mm 6 mps 749 mmHg 63%
    16:00 +32°C° 0.1 mm 6 mps 749 mmHg 63%
    17:00 +29°C° 0 mm 6 mps 749 mmHg 71%
    18:00 +28°C° 0 mm 6 mps 749 mmHg 78%
    19:00 +27°C° 0 mm 7 mps 749 mmHg 85%
    20:00 +26°C° 0.5 mm 6 mps 750 mmHg 87%
    21:00 +26°C° 0.5 mm 6 mps 751 mmHg 90%
    22:00 +26°C° 0.5 mm 5 mps 752 mmHg 92%
    23:00 +25°C° 2 mm 5 mps 752 mmHg 93%

    Day after tomorrow, 15 December, Saturday

    Time Temperature Precipitation Wind Pressure Humidity
    00:00 +24°C° 2 mm 6 mps 751 mmHg 93%
    01:00 +24°C° 2 mm 6 mps 751 mmHg 93%
    02:00 +24°C° 1.9 mm 6 mps 751 mmHg 94%
    03:00 +24°C° 1.9 mm 6 mps 751 mmHg 94%
    04:00 +24°C° 1.9 mm 6 mps 751 mmHg 94%
    05:00 +26°C° 1.2 mm 7 mps 751 mmHg 92%
    06:00 +26°C° 1.2 mm 7 mps 752 mmHg 90%
    07:00 +27°C° 1.2 mm 8 mps 752 mmHg 88%
    08:00 +27°C° 1.1 mm 8 mps 752 mmHg 84%
    09:00 +28°C° 1.1 mm 8 mps 753 mmHg 80%
    10:00 +29°C° 1.1 mm 8 mps 753 mmHg 77%
    11:00 +29°C° 0.8 mm 8 mps 752 mmHg 76%
    12:00 +29°C° 0.8 mm 8 mps 752 mmHg 75%
    13:00 +29°C° 0.8 mm 8 mps 752 mmHg 75%
    14:00 +28°C° 0.4 mm 7 mps 752 mmHg 78%
    15:00 +27°C° 0.4 mm 7 mps 752 mmHg 82%
    16:00 +27°C° 0.4 mm 7 mps 752 mmHg 85%
    17:00 +26°C° 0.1 mm 7 mps 752 mmHg 87%
    18:00 +26°C° 0.1 mm 6 mps 753 mmHg 88%
    19:00 +26°C° 0.1 mm 6 mps 753 mmHg 90%
    20:00 +24°C° 0.1 mm 6 mps 753 mmHg 91%
    21:00 +24°C° 0.1 mm 6 mps 754 mmHg 91%
    22:00 +24°C° 0.1 mm 6 mps 754 mmHg 92%
    23:00 +25°C° 0.2 mm 5 mps 754 mmHg 93%

    16 December, Sunday

    Time Temperature Precipitation Wind Pressure Humidity
    00:00 +25°C° 0.2 mm 5 mps 754 mmHg 93%
    01:00 +25°C° 0.2 mm 5 mps 754 mmHg 93%
    02:00 +23°C° 0.1 mm 5 mps 754 mmHg 93%
    03:00 +23°C° 0.1 mm 5 mps 754 mmHg 93%
    04:00 +23°C° 0.1 mm 5 mps 754 mmHg 93%
    05:00 +25°C° 0.1 mm 5 mps 754 mmHg 90%
    06:00 +25°C° 0.1 mm 5 mps 755 mmHg 88%
    07:00 +26°C° 0.1 mm 5 mps 755 mmHg 85%
    08:00 +27°C° 0.1 mm 5 mps 755 mmHg 80%
    09:00 +28°C° 0.1 mm 5 mps 755 mmHg 75%
    10:00 +29°C° 0.1 mm 5 mps 755 mmHg 70%
    11:00 +29°C° 0.2 mm 5 mps 755 mmHg 68%
    12:00 +30°C° 0.2 mm 5 mps 754 mmHg 66%
    13:00 +30°C° 0.2 mm 6 mps 754 mmHg 64%
    14:00 +29°C° 0.2 mm 6 mps 754 mmHg 67%
    15:00 +29°C° 0.2 mm 6 mps 754 mmHg 71%
    16:00 +28°C° 0.2 mm 6 mps 753 mmHg 74%
    17:00 +27°C° 0.2 mm 6 mps 754 mmHg 79%
    18:00 +26°C° 0.2 mm 6 mps 754 mmHg 84%
    19:00 +24°C° 0.2 mm 6 mps 754 mmHg 90%
    20:00 +24°C° 0.2 mm 6 mps 755 mmHg 90%
    21:00 +25°C° 0.2 mm 5 mps 755 mmHg 91%
    22:00 +25°C° 0.2 mm 5 mps 755 mmHg 91%
    23:00 +25°C° 1.2 mm 5 mps 755 mmHg 93%

    17 December, Monday

    Time Temperature Precipitation Wind Pressure Humidity
    00:00 +23°C° 1.2 mm 5 mps 755 mmHg 94%
    01:00 +23°C° 1.2 mm 4 mps 754 mmHg 95%
    02:00 +23°C° 2.1 mm 4 mps 754 mmHg 95%
    03:00 +23°C° 2.1 mm 4 mps 754 mmHg 96%
    04:00 +23°C° 2.1 mm 4 mps 754 mmHg 96%
    05:00 +23°C° 1.5 mm 4 mps 754 mmHg 94%
    06:00 +25°C° 1.5 mm 4 mps 755 mmHg 92%
    07:00 +26°C° 1.5 mm 4 mps 755 mmHg 90%
    08:00 +27°C° 1.5 mm 5 mps 755 mmHg 85%
    09:00 +28°C° 1.5 mm 5 mps 755 mmHg 80%
    10:00 +29°C° 1.5 mm 5 mps 755 mmHg 75%
    11:00 +29°C° 0.7 mm 5 mps 755 mmHg 76%
    12:00 +29°C° 0.7 mm 6 mps 755 mmHg 76%
    13:00 +29°C° 0.7 mm 6 mps 755 mmHg 76%
    14:00 +29°C° 0.2 mm 6 mps 754 mmHg 76%
    15:00 +28°C° 0.2 mm 6 mps 754 mmHg 76%
    16:00 +28°C° 0.2 mm 6 mps 754 mmHg 76%
    17:00 +27°C° 0.1 mm 5 mps 755 mmHg 81%
    18:00 +26°C° 0.1 mm 5 mps 755 mmHg 85%
    19:00 +25°C° 0.1 mm 4 mps 756 mmHg 90%
    20:00 +25°C° 0.1 mm 4 mps 756 mmHg 91%
    21:00 +25°C° 0.1 mm 4 mps 757 mmHg 92%
    22:00 +25°C° 0.1 mm 4 mps 757 mmHg 93%
    23:00 +25°C° 0.1 mm 4 mps 757 mmHg 93%

    18 December, Tuesday

    Time Temperature Precipitation Wind Pressure Humidity
    00:00 +24°C° 0.1 mm 3 mps 756 mmHg 94%
    01:00 +24°C° 0.1 mm 3 mps 756 mmHg 94%
    02:00 +24°C° 0.1 mm 3 mps 756 mmHg 94%
    03:00 +24°C° 0.1 mm 3 mps 756 mmHg 95%
    04:00 +24°C° 0.1 mm 3 mps 756 mmHg 95%
    05:00 +25°C° 0.1 mm 3 mps 756 mmHg 91%
    06:00 +26°C° 0.1 mm 3 mps 757 mmHg 87%
    07:00 +26°C° 0.1 mm 3 mps 758 mmHg 84%
    08:00 +28°C° 0 mm 3 mps 758 mmHg 76%
    09:00 +29°C° 0 mm 4 mps 758 mmHg 68%
    10:00 +32°C° 0 mm 4 mps 758 mmHg 61%
    11:00 +32°C° 0 mm 4 mps 757 mmHg 60%
    12:00 +32°C° 0 mm 4 mps 757 mmHg 59%
    13:00 +32°C° 0 mm 4 mps 756 mmHg 57%
    14:00 +32°C° 0 mm 4 mps 756 mmHg 58%
    15:00 +32°C° 0 mm 5 mps 756 mmHg 59%
    16:00 +32°C° 0 mm 5 mps 756 mmHg 60%
    17:00 +29°C° 0 mm 4 mps 756 mmHg 67%
    18:00 +28°C° 0 mm 4 mps 757 mmHg 74%
    19:00 +26°C° 0 mm 3 mps 757 mmHg 82%
    20:00 +25°C° 0 mm 3 mps 758 mmHg 85%
    21:00 +25°C° 0 mm 3 mps 758 mmHg 89%
    22:00 +24°C° 0 mm 3 mps 759 mmHg 92%
    23:00 +24°C° 0 mm 3 mps 758 mmHg 93%
    Show more